Girona Airport

Jump to: basic info | weather | frequencies | runways | comments

Related pages: nearby airports | nearby navaids | notams | map

Basic information (top)

Codes: GRO LEGE
Location: lon 41.901001, lat 2.760550, elev 468 ft / 143 m msl
Status: medium_airport
Scheduled airline service: yes
Links: Wikipedia Mobile

Weather (top)

Current conditions (rec'd 2014/10/22 09:00Z):

LEGE 220900Z 05009KT 010V080 9999 FEW025 16/06 Q1023

Airport forecast (rec'd 2014/10/22 06:27Z):

TAF LEGE 220500Z 2206/2306 02009KT 9999 FEW025 TX24/2213Z TN09/2306Z 
      TEMPO 2214/2218 18008KT 
      BECMG 2218/2220 VRB03KT

Frequencies (top)

Verify before use: may be inaccurate or out of date.

APP: 120.9 MHz (APP)
GND: 121.7 MHz (GND)
TWR: 118.5 MHz (TWR)

Runways (top)

02/20: 7,874 x 148 ft (2,400 x 45 m) — paved — lighted

Latest comments (top)

No comments yet for Girona Airport

More... (top)

See also NOTAMs and nearby airports and navaids, or visit the Girona Airport page at the main OurAirports website..